Ithaca, NY

11:46 PM EST on November 24, 2017 (GMT -0500)
Tompkins County

Weather History for KITH - March, 2014

Change the Weather History Date:

Saturday, March 29, 2014

  Actual Average Record
Temperature  
Mean Temperature 38 °F -  
Max Temperature 43 °F 49 °F 82 °F (1946)
Min Temperature 33 °F 29 °F 1 °F (1959)
Degree Days  
Heating Degree Days 27    
Moisture  
Dew Point 34 °F    
Average Humidity 91    
Maximum Humidity 100    
Minimum Humidity 70    
Precipitation  
Precipitation 0.51 in - - ()
Sea Level Pressure  
Sea Level Pressure 30.03 in    
Wind  
Wind Speed 5 mph (NNW)    
Max Wind Speed 14 mph    
Max Gust Speed -    
Visibility 6 miles    
Events Fog , Rain    
Averages and records for this station are not official NWS values.
T = Trace of Precipitation, MM = Missing Value Source: NWS Daily Summary

Daily Weather History Graph

Daily Weather History Graph

Search for Another Location

Airport or City:

Trip Planner

Search our weather history database for the weather conditions in past years. The results will help you decide how hot, cold, wet, or windy it might be!

Date:

Astronomy

Mar. 29, 2014 Rise Set
Actual Time 6:53 AM EDT 7:28 PM EDT
Civil Twilight 6:25 AM EDT 7:56 PM EDT
Nautical Twilight 5:51 AM EDT 8:30 PM EDT
Astronomical Twilight 5:17 AM EDT 9:04 PM EDT
Moon 6:02 AM EDT (3/29) 6:30 PM EDT (3/29)
Length of Visible Light 13h 31m
Length of Day
12h 34m
Waning Crescent, 2% of the Moon is Illuminated
Mar 29
Waning Crescent
Mar 30
New
Apr 7
First Quarter
Apr 15
Full
Apr 22
Last Quarter

Hourly Weather History & Observations

Time (EDT) Temp. Windchill Dew Point Humidity Pressure Visibility Wind Dir Wind Speed Gust Speed Precip Events Conditions
12:56 AM 36.9 °F 31.4 °F 32.9 °F 86% 30.20 in 10.0 mi NNW 6.9 mph - N/A   Overcast
1:56 AM 36.0 °F 32.1 °F 32.0 °F 86% 30.23 in 10.0 mi NNW 4.6 mph - N/A   Overcast
2:56 AM 34.9 °F 32.0 °F 32.0 °F 89% 30.22 in 8.0 mi North 3.5 mph - N/A   Overcast
3:28 AM 35.6 °F - 32.0 °F 87% 30.21 in 10.0 mi Calm Calm - N/A   Overcast
3:56 AM 34.0 °F 31.0 °F 32.0 °F 92% 30.22 in 10.0 mi NE 3.5 mph - N/A   Overcast
4:56 AM 34.9 °F 30.8 °F 32.0 °F 89% 30.21 in 10.0 mi NNE 4.6 mph - N/A   Overcast
5:56 AM 34.0 °F 29.8 °F 32.0 °F 92% 30.20 in 10.0 mi NE 4.6 mph - N/A   Overcast
6:29 AM 33.8 °F 27.0 °F 32.0 °F 93% 30.19 in 10.0 mi North 8.1 mph - N/A   Mostly Cloudy
6:56 AM 34.0 °F 28.8 °F 32.0 °F 92% 30.20 in 10.0 mi NNE 5.8 mph - N/A   Mostly Cloudy
7:38 AM 33.8 °F - 32.0 °F 93% 30.21 in 10.0 mi Calm Calm - N/A   Mostly Cloudy
7:56 AM 34.0 °F - 32.0 °F 92% 30.25 in 10.0 mi Calm Calm - N/A   Overcast
8:56 AM 36.0 °F - 32.0 °F 86% 30.25 in 10.0 mi Calm Calm - N/A   Overcast
9:56 AM 36.9 °F 31.4 °F 32.0 °F 83% 30.22 in 10.0 mi East 6.9 mph - N/A   Overcast
10:56 AM 37.9 °F 34.4 °F 32.0 °F 79% 30.20 in 10.0 mi ESE 4.6 mph - N/A   Overcast
11:56 AM 39.9 °F 35.1 °F 32.0 °F 73% 30.17 in 10.0 mi East 6.9 mph - N/A   Overcast
12:56 PM 41.9 °F 38.2 °F 32.9 °F 70% 30.13 in 10.0 mi Variable 5.8 mph - N/A   Overcast
1:56 PM 43.0 °F 40.3 °F 34.0 °F 71% 30.10 in 10.0 mi NE 4.6 mph - N/A   Mostly Cloudy
2:56 PM 43.0 °F 39.5 °F 34.0 °F 71% 30.06 in 10.0 mi North 5.8 mph - N/A   Overcast
3:56 PM 41.9 °F 38.2 °F 34.9 °F 76% 30.04 in 10.0 mi NW 5.8 mph - 0.00 in Rain Light Rain
4:56 PM 38.8 °F 36.5 °F 36.9 °F 93% 30.01 in 6.0 mi NW 3.5 mph - 0.00 in Rain Light Rain
5:56 PM 37.9 °F 34.4 °F 36.9 °F 96% 29.98 in 2.0 mi NW 4.6 mph - 0.01 in Rain Light Rain
6:19 PM 37.4 °F 32.8 °F 35.6 °F 93% 29.94 in 0.2 mi NW 5.8 mph - 0.00 in Fog , Rain Light Rain
6:39 PM 37.4 °F 32.8 °F 35.6 °F 93% 29.94 in 0.8 mi NW 5.8 mph - 0.00 in Rain Light Rain
6:56 PM 36.9 °F 31.4 °F 36.0 °F 97% 29.96 in 0.2 mi NW 6.9 mph - 0.00 in Fog , Rain Light Rain
7:07 PM 37.4 °F 33.8 °F 35.6 °F 93% 29.92 in 0.2 mi NNW 4.6 mph - 0.00 in Fog , Rain Light Rain
7:47 PM 35.6 °F 32.8 °F 33.8 °F 93% 29.90 in 0.2 mi NW 3.5 mph - 0.04 in Fog , Rain Rain
7:56 PM 34.9 °F 32.0 °F 34.9 °F 100% 29.93 in 0.8 mi WNW 3.5 mph - 0.05 in Rain Light Rain
8:56 PM 36.0 °F 32.1 °F 34.9 °F 96% 29.90 in 1.0 mi NNW 4.6 mph - 0.11 in Rain Light Rain
9:39 PM 35.6 °F 29.9 °F 35.6 °F 100% 29.84 in 1.0 mi NNW 6.9 mph - 0.06 in Rain Light Rain
9:56 PM 36.9 °F 31.4 °F 36.0 °F 97% 29.85 in 3.0 mi North 6.9 mph - 0.08 in Rain Light Rain
10:05 PM 37.4 °F 32.8 °F 37.4 °F 100% 29.83 in 6.0 mi NNW 5.8 mph - 0.01 in Rain Rain
10:31 PM 37.4 °F 32.8 °F 37.4 °F 100% 29.80 in 5.0 mi North 5.8 mph - 0.08 in Rain Rain
10:56 PM 34.9 °F 26.2 °F 34.9 °F 100% 29.84 in 0.5 mi NW 12.7 mph - 0.15 in Fog , Rain Light Rain
10:58 PM 35.6 °F 27.5 °F 35.6 °F 100% 29.81 in 0.2 mi NW 11.5 mph - 0.00 in Fog , Rain Light Rain
11:10 PM 33.8 °F 26.4 °F 33.8 °F 100% 29.81 in 0.2 mi NW 9.2 mph - 0.01 in Fog , Rain Light Rain
11:12 PM 33.8 °F 27.0 °F 33.8 °F 100% 29.81 in 0.5 mi NW 8.1 mph - 0.01 in Fog , Rain Light Rain
11:39 PM 33.8 °F 25.3 °F 33.8 °F 100% 29.81 in 1.0 mi NW 11.5 mph - 0.07 in Rain Rain
11:48 PM 33.8 °F 24.3 °F 33.8 °F 100% 29.81 in 1.5 mi NW 13.8 mph - 0.09 in Rain Rain
11:56 PM 34.9 °F 26.2 °F 34.9 °F 100% 29.84 in 4.0 mi NNW 12.7 mph - 0.11 in Rain Rain